Location: ?????????
(48.6301°N, 37.5526°E)
Time: 00:18:08
(UTC+00:00)

Daily predictions for brighter satellites

Satellite Brightness Start Highest point End
(mag) Time Altitude Azimuth Time Altitude Azimuth Time Altitude Azimuth
Cosmos 1953 3.2 00:01:07 10° NNW 00:04:40 32° W 00:06:13 23° SW
Cosmos 1455 Rocket 4.0 00:02:37 10° NNW 00:06:23 29° W 00:08:11 21° SW
Cosmos 2228 4.2 00:02:40 10° N 00:06:46 42° ENE 00:10:51 10° SSE
CBERS-1 4.2 00:04:51 10° NNE 00:09:59 74° ESE 00:14:29 13° S
Cosmos 1980 Rocket 2.5 00:07:05 16° SSW 00:11:38 65° ESE 00:17:16 10° NNE
Landsat 4 4.2 00:10:58 10° N 00:14:34 45° WNW 00:16:45 21° SW
Cosmos 1624 Rocket 4.1 00:10:48 17° SSW 00:15:01 80° ESE 00:20:24 10° NNE
Cosmos 2285 Rocket 4.2 00:10:49 14° SSW 00:16:24 75° ESE 00:22:51 10° NNE
Cosmos 1536 Rocket 3.5 00:14:23 17° SSW 00:17:45 78° W 00:22:14 10° N
GP-B 3.1 00:15:30 10° N 00:19:54 65° W 00:23:36 14° SSW
Cosmos 2227 Rocket 3.2 00:16:02 10° NW 00:20:40 27° WSW 00:23:59 16° SSW
Cosmos 2297 Rocket 3.6 00:19:13 10° NW 00:23:12 20° W 00:25:29 16° SW
USA 276 2.4 00:20:13 10° W 00:23:19 65° N 00:26:30 10° E
Meteor 1-29 4.1 00:25:21 10° N 00:28:20 29° WNW 00:30:17 17° WSW
Cosmos 1954 Rocket 4.0 00:26:18 10° NNW 00:31:34 73° WSW 00:36:50 10° SSE
Cosmos 2369 3.8 00:27:00 15° SW 00:31:43 69° WNW 00:37:28 10° NNE
Cosmos 2278 3.8 00:28:00 13° SSW 00:33:10 82° ESE 00:38:54 10° NNE
Cosmos 1674 4.4 00:31:30 13° WSW 00:33:35 20° WNW 00:36:26 10° NNW
CZ-4C R/B 3.7 00:32:03 10° S 00:36:13 50° W 00:40:14 10° NNW
Cosmos 2082 4.3 00:31:06 10° NW 00:36:18 37° WSW 00:41:28 10° S
Cosmos 2056 Rocket 3.5 00:32:17 14° SSW 00:36:40 71° WNW 00:41:49 10° NNE
MSX 4.1 00:31:12 10° NNE 00:37:01 73° ESE 00:42:47 10° S
IRS-1C 4.3 00:32:05 10° NNE 00:37:28 76° ESE 00:42:47 10° S
BREEZE-M DEB (TANK) 4.2 00:32:59 12° WSW 00:37:52 82° SSE 00:58:15 10° ENE
SL-14 R/B 3.9 00:37:33 15° SW 00:40:34 42° WNW 00:44:22 10° N
Cosmos 405 2.9 00:41:05 10° NNW 00:44:35 63° W 00:48:02 10° S
SL-16 R/B 3.5 00:41:35 10° S 00:46:44 37° ESE 00:51:54 10° NE
CZ-2C R/B 4.0 00:42:59 10° NNE 00:47:45 37° E 00:52:32 10° SSE
Cosmos 1371 Rocket 4.4 00:44:52 12° SW 00:49:32 51° WNW 00:54:38 10° NNE
CZ-2D R/B 4.1 00:47:50 10° NNE 00:52:13 61° E 00:56:36 10° S
Cosmos 1626 3.7 00:49:57 11° WSW 00:52:28 20° WNW 00:55:18 10° NNW
IRS-1D 4.2 00:48:50 10° N 00:53:51 42° WNW 00:58:51 10° SW
Cosmos 1850 Rocket 4.4 00:49:53 10° NNW 00:55:16 74° ENE 01:00:37 10° SSE
Cosmos 1891 Rocket 4.4 00:50:59 10° NNW 00:57:05 76° W 01:03:05 10° S
NOSS 3-2 (A) 4.5 00:52:13 10° S 00:57:19 38° ESE 01:03:06 10° NE
ALOS 4.4 00:53:35 10° NE 00:57:26 25° E 01:01:17 10° SSE
Cosmos 220 Rocket 4.1 00:54:06 10° SSW 00:58:32 84° ESE 01:02:58 10° NNE
IDEFIX/ARIANE 42P 2.8 00:54:38 10° N 00:59:47 56° WNW 01:04:56 10° SSW
ISS -3.1 00:56:46 10° W 00:59:53 35° SW 01:03:00 10° SSE
Cosmos 1300 3.9 00:58:28 10° NW 01:01:38 25° W 01:04:46 10° SW
Aureole 2 Rocket 2.5 01:01:24 10° NW 01:03:51 32° WSW 01:06:18 10° S
SL-16 R/B 4.2 01:00:51 10° WSW 01:04:01 14° W 01:07:11 10° NW
Cosmos 1741 Rocket 4.1 01:00:23 10° NNW 01:05:39 85° ENE 01:10:53 10° SSE
BREEZE-M DEB (TANK) 1.9 01:07:07 10° SW 01:09:57 45° SSE 01:12:05 10° E
SL-08 R/B 3.4 01:05:38 10° S 01:10:13 53° W 01:14:46 10° NNW
USA 32 4.2 01:06:30 10° N 01:11:49 87° E 01:17:05 10° S
Meteor 2-10 Rocket 3.9 01:06:15 10° NNW 01:11:52 56° W 01:17:16 10° S
Cosmos 1346 Rocket 2.9 01:08:43 10° S 01:12:36 78° ESE 01:16:33 10° NNE
ADEOS Rocket 4.2 01:07:27 10° SSW 01:14:08 34° W 01:21:06 10° NNW
Cosmos 2322 Rocket 3.2 01:08:48 10° S 01:14:11 47° ESE 01:19:39 10° NE
Cosmos 2263 Rocket 2.4 01:11:15 10° NW 01:16:42 50° WSW 01:22:09 10° S
Cosmos 2346 Rocket 4.5 01:10:57 10° S 01:17:02 85° W 01:23:08 10° N
